Johnstown, PA

7:47 PM EST on November 22, 2017 (GMT -0500)
Johnstown-Cambria County

Weather History for KJST - March, 2014

Change the Weather History Date:

Sunday, March 23, 2014

  Actual Average Record
Temperature  
Mean Temperature 22 °F 38 °F  
Max Temperature 30 °F 46 °F 86 °F (1907)
Min Temperature 14 °F 30 °F 13 °F (1940)
Degree Days  
Heating Degree Days 43 27  
Month to date heating degree days 826 711  
Since 1 July heating degree days 6154 5590  
Cooling Degree Days 0 0  
Month to date cooling degree days 0 0  
Year to date cooling degree days 0 0  
Moisture  
Dew Point 15 °F    
Average Humidity 60    
Maximum Humidity 81    
Minimum Humidity 39    
Precipitation  
Precipitation 0.00 in 0.12 in 1.37 in (1898)
Month to date precipitation 1.10 2.23  
Year to date precipitation 5.14 7.46  
Sea Level Pressure  
Sea Level Pressure 30.10 in    
Wind  
Wind Speed 14 mph (WNW)    
Max Wind Speed 23 mph    
Max Gust Speed 29 mph    
Visibility 10 miles    
Events      
T = Trace of Precipitation, MM = Missing Value Source: NWS Daily Summary

Daily Weather History Graph

Daily Weather History Graph

Search for Another Location

Airport or City:

Trip Planner

Search our weather history database for the weather conditions in past years. The results will help you decide how hot, cold, wet, or windy it might be!

Date:

Astronomy

Mar. 23, 2014 Rise Set
Actual Time 7:13 AM EDT 7:30 PM EDT
Civil Twilight 6:46 AM EDT 7:57 PM EDT
Nautical Twilight 6:14 AM EDT 8:29 PM EDT
Astronomical Twilight 5:42 AM EDT 9:02 PM EDT
Moon 1:46 AM EDT 11:52 AM EDT
Length of Visible Light 13h 11m
Length of Day
12h 16m
Waning Gibbous, 55% of the Moon is Illuminated
Mar 23
Waning Gibbous
Mar 23
Last Quarter
Mar 30
New
Apr 7
First Quarter
Apr 15
Full

Hourly Weather History & Observations

Time (EDT) Temp. Windchill Dew Point Humidity Pressure Visibility Wind Dir Wind Speed Gust Speed Precip Events Conditions
12:54 AM 30.0 °F 19.1 °F 21.9 °F 72% 30.07 in 10.0 mi NW 15.0 mph - N/A   Overcast
1:29 AM 30.0 °F 23.2 °F 21.9 °F 72% 30.02 in 10.0 mi NW 6.9 mph - N/A   Overcast
1:54 AM 30.0 °F 21.1 °F 21.9 °F 72% 30.07 in 10.0 mi WNW 10.4 mph - N/A   Overcast
2:09 AM 30.0 °F 21.1 °F 21.9 °F 72% 30.02 in 10.0 mi NW 10.4 mph - N/A   Overcast
2:33 AM 30.0 °F 22.4 °F 21.9 °F 72% 30.01 in 10.0 mi WNW 8.1 mph - N/A   Overcast
2:54 AM 30.0 °F 21.1 °F 21.0 °F 69% 30.06 in 10.0 mi WNW 10.4 mph - N/A   Overcast
3:28 AM 30.0 °F 22.4 °F 21.9 °F 72% 30.01 in 10.0 mi WNW 8.1 mph - N/A   Overcast
3:54 AM 28.9 °F 19.2 °F 21.9 °F 75% 30.06 in 10.0 mi WNW 11.5 mph - N/A   Overcast
4:40 AM 28.9 °F 19.2 °F 21.0 °F 72% 30.01 in 10.0 mi WNW 11.5 mph - N/A   Mostly Cloudy
4:54 AM 28.9 °F 23.9 °F 21.9 °F 75% 30.05 in 10.0 mi West 4.6 mph - N/A   Overcast
5:54 AM 28.9 °F 18.2 °F 21.9 °F 75% 30.06 in 10.0 mi WNW 13.8 mph - N/A   Overcast
6:54 AM 28.0 °F 18.6 °F 23.0 °F 81% 30.07 in 10.0 mi NW 10.4 mph - N/A   Overcast
7:54 AM 28.0 °F 17.5 °F 23.0 °F 81% 30.10 in 7.0 mi WNW 12.7 mph 17.3 mph N/A   Overcast
8:54 AM 26.1 °F 16.8 °F 21.0 °F 81% 30.12 in 10.0 mi NW 9.2 mph - N/A   Overcast
9:54 AM 26.1 °F 15.6 °F 19.9 °F 78% 30.12 in 7.0 mi NW 11.5 mph - N/A   Overcast
10:11 AM 26.1 °F 14.0 °F 19.9 °F 78% 30.05 in 7.0 mi NW 15.0 mph - N/A   Overcast
10:54 AM 27.0 °F 14.7 °F 18.0 °F 69% 30.13 in 10.0 mi NW 16.1 mph - N/A   Mostly Cloudy
11:54 AM 27.0 °F 13.9 °F 17.1 °F 66% 30.12 in 10.0 mi WNW 18.4 mph 25.3 mph N/A   Mostly Cloudy
12:17 PM 27.0 °F 13.5 °F 14.0 °F 58% 30.04 in 10.0 mi WNW 19.6 mph - N/A   Mostly Cloudy
12:54 PM 28.0 °F 15.3 °F 12.9 °F 53% 30.12 in 10.0 mi NW 18.4 mph - N/A   Partly Cloudy
1:54 PM 27.0 °F 16.7 °F 10.0 °F 49% 30.10 in 10.0 mi West 11.5 mph 23.0 mph N/A   Mostly Cloudy
2:54 PM 28.0 °F 16.5 °F 9.0 °F 45% 30.09 in 10.0 mi WNW 15.0 mph - N/A   Overcast
3:54 PM 27.0 °F 15.2 °F 9.0 °F 47% 30.09 in 10.0 mi WNW 15.0 mph - N/A   Mostly Cloudy
4:54 PM 28.0 °F 17.5 °F 7.0 °F 41% 30.08 in 10.0 mi WNW 12.7 mph 24.2 mph N/A   Mostly Cloudy
5:54 PM 27.0 °F 12.8 °F 6.1 °F 41% 30.09 in 10.0 mi WNW 21.9 mph - N/A   Scattered Clouds
6:54 PM 24.1 °F 10.1 °F 6.1 °F 46% 30.12 in 10.0 mi WNW 18.4 mph 27.6 mph N/A   Scattered Clouds
7:54 PM 21.0 °F 6.2 °F 5.0 °F 50% 30.15 in 10.0 mi WNW 18.4 mph 28.8 mph N/A   Clear
8:54 PM 19.0 °F 3.6 °F 6.1 °F 57% 30.19 in 10.0 mi WNW 18.4 mph 26.5 mph N/A   Clear
9:54 PM 17.1 °F 1.0 °F 6.1 °F 62% 30.22 in 10.0 mi NW 18.4 mph - N/A   Partly Cloudy
10:54 PM 14.0 °F -2.5 °F 6.1 °F 71% 30.24 in 10.0 mi NW 17.3 mph - N/A   Partly Cloudy
11:07 PM 14.0 °F -1.4 °F 5.0 °F 67% 30.13 in 10.0 mi NW 15.0 mph - N/A   Mostly Cloudy
11:54 PM 14.0 °F 0.5 °F 5.0 °F 67% 30.25 in 10.0 mi WNW 11.5 mph - N/A   Overcast